Temp
62 63 64 65 66 65 66 66 66 65 66 66 66 65 64 63 62 61 57 55 54 56
61 62 63 64 64 64 65 66 65 66 65 66 65 65 64 63 63 62 60 58 56 57
61 62 63 62 62 63 64 65 65 65 65 65 65 64 63 62 63 59 59 57 54 55
61 61 62 62 62 63 64 65 64 65 65 64 64 62 60 59 59 54 54 53 53 52
61 60 61 61 62 63 63 64 64 64 65 64 62 58 55 54 55 53 53 52 51 51
60 60 59 61 62 63 63 64 64 64 63 62 59 56 58 57 56 54 54 54 52 52
62 62 62 62 62 62 63 64 64 64 63 62 61 59 58 57 55 54 55 56 54 53
63 63 63 63 63 63 64 64 64 63 61 60 59 57 56 55 55 55 53 52 52 51
62 62 62 62 62 63 63 63 62 60 58 58 56 48 45 49 52 53 51 48 42 42
62 62 62 62 62 62 62 61 58 57 56 54 52 44 43 41 47 45 41 39 39 38
58 56 56 57 57 54 51 50 48 47 46 42 39 38 39 38 40 38 37 37 36 35
53 51 50 49 48 48 46 43 42 41 39 37 36 36 37 37 35 33 32 33 33 33
49 48 47 46 44 42 40 38 37 35 35 35 35 35 35 35 33 31 30 30 30 30
46 44 44 42 41 39 36 34 33 31 32 33 33 34 34 34 32 31 30 29 28 28
MSLP
1013.85 1014.25 1014.60 1014.96 1015.39 1015.78 1016.02 1016.57 1016.92 1017.45 1017.74 1017.92 1018.19 1018.52 1018.88 1019.26 1019.47 1019.67 1019.88 1020.15 1020.29 1020.47
1013.38 1013.81 1014.08 1014.66 1015.17 1015.49 1015.72 1016.13 1016.31 1016.37 1016.88 1017.32 1017.84 1018.08 1018.23 1018.49 1018.48 1018.79 1018.94 1019.26 1019.31 1019.38
1012.74 1013.20 1013.65 1014.12 1014.53 1014.76 1015.27 1015.64 1015.78 1016.09 1016.35 1016.99 1017.19 1017.24 1017.60 1017.56 1017.68 1018.10 1018.23 1018.34 1018.50 1018.51
1012.00 1012.45 1012.92 1013.14 1013.52 1013.87 1014.61 1014.81 1015.17 1015.30 1015.60 1015.89 1016.15 1016.42 1016.77 1016.91 1017.15 1017.50 1017.49 1017.43 1017.26 1017.38
1011.07 1011.52 1011.80 1012.25 1012.46 1012.98 1013.52 1014.06 1014.20 1014.29 1014.63 1014.97 1015.25 1015.58 1015.96 1016.10 1016.09 1016.01 1015.99 1015.99 1015.89 1016.30
1009.87 1010.28 1010.58 1011.06 1011.58 1012.11 1012.53 1012.71 1012.97 1013.44 1013.63 1013.90 1014.21 1014.53 1014.19 1014.94 1014.96 1015.03 1014.88 1014.55 1014.71 1014.85
1008.43 1008.95 1009.63 1010.34 1010.98 1011.31 1011.54 1011.91 1012.15 1012.45 1012.78 1013.05 1013.37 1013.55 1013.46 1013.76 1014.00 1014.11 1014.23 1013.91 1013.79 1014.00
1008.01 1008.62 1009.19 1009.68 1010.17 1010.59 1010.90 1011.16 1011.50 1011.84 1012.07 1012.16 1012.30 1012.36 1012.72 1012.88 1012.94 1013.18 1013.40 1013.55 1013.48 1013.67
1007.64 1008.15 1008.58 1009.02 1009.41 1009.83 1010.21 1010.58 1010.95 1011.10 1011.23 1011.36 1011.57 1011.73 1012.03 1012.34 1012.54 1012.64 1012.85 1013.33 1013.87 1014.07
1007.18 1007.64 1008.02 1008.40 1008.88 1009.29 1009.56 1009.85 1010.17 1010.45 1010.86 1011.27 1011.69 1011.87 1012.06 1012.36 1012.74 1013.00 1013.46 1013.95 1014.41 1014.92
1006.85 1007.45 1007.99 1008.40 1008.87 1009.30 1009.91 1010.34 1010.91 1011.49 1011.96 1012.44 1013.05 1012.77 1012.61 1012.98 1013.59 1014.23 1014.84 1015.34 1015.64 1015.94
1007.23 1007.75 1008.40 1009.01 1009.64 1010.17 1010.68 1011.45 1012.13 1012.75 1013.20 1013.73 1014.27 1014.20 1013.96 1014.04 1014.91 1015.60 1016.39 1016.81 1017.18 1017.47
1008.25 1008.79 1009.42 1010.03 1010.70 1011.41 1011.99 1012.75 1013.48 1014.16 1014.60 1015.00 1015.36 1015.41 1015.11 1015.18 1016.03 1016.53 1017.36 1017.87 1018.31 1018.73
1009.69 1010.19 1010.67 1011.23 1011.83 1012.53 1013.22 1013.92 1014.68 1015.29 1016.01 1016.37 1016.56 1016.67 1016.48 1016.65 1017.13 1017.71 1018.36 1018.80 1019.20 1019.49
Wind_Speed
13 9 10 11 9 8 9 10 12 12 13 12 12 11 12 9 10 11 11 15 12 9
14 15 12 13 11 9 10 9 12 12 11 13 14 15 13 10 12 12 13 13 13 13
16 16 15 13 15 15 13 13 12 11 12 13 13 13 13 11 12 12 11 10 11 12
17 18 16 14 15 15 15 15 14 14 14 14 13 12 11 12 12 13 14 12 13 14
16 16 17 18 17 15 16 15 15 15 15 15 12 10 11 12 14 16 15 15 12 15
17 18 18 16 15 15 16 16 14 14 14 12 12 11 16 16 15 16 17 16 16 16
17 17 15 15 15 14 14 14 15 14 15 14 14 15 14 13 14 14 14 14 13 14
13 13 14 14 14 14 14 14 14 13 13 13 13 9 11 12 13 13 12 11 11 12
13 13 13 14 14 13 14 14 12 12 12 12 9 11 13 10 8 10 11 6 4 5
12 12 11 10 11 11 12 10 10 10 7 5 3 4 7 5 2 3 6 7 7 7
7 6 5 5 5 1 4 5 5 7 7 8 9 9 9 13 9 10 10 9 8 8
4 5 6 7 7 6 8 8 9 9 10 11 11 15 14 14 11 13 13 12 11 10
8 9 9 9 10 10 10 10 9 12 12 16 12 17 18 14 8 11 8 10 11 17
11 11 10 10 9 9 10 11 11 13 12 13 13 16 22 20 9 7 7 7 6 5
Wind_Direction
196 200 203 205 205 210 209 207 202 211 218 222 223 223 220 222 223 217 216 219 215 219
202 209 210 213 217 218 221 225 216 213 220 229 229 228 226 229 235 229 230 229 222 218
207 208 210 211 217 219 223 224 226 230 229 233 233 231 231 234 240 228 232 228 219 221
206 208 208 211 217 218 224 227 230 232 236 238 240 233 229 234 234 226 231 221 216 223
206 205 208 213 214 211 218 219 224 226 232 234 229 212 210 227 227 223 227 223 207 218
204 203 208 213 215 212 219 224 228 229 233 233 224 221 231 238 238 231 230 217 209 221
211 210 212 210 216 219 222 231 234 236 238 236 234 236 229 227 234 233 235 235 226 223
215 215 213 212 216 220 224 228 230 234 237 239 237 236 229 226 229 236 241 236 228 220
209 206 207 209 214 216 221 228 227 231 234 241 238 235 221 226 231 236 232 218 72 70
202 211 215 211 217 225 232 232 228 236 241 258 321 302 240 237 303 84 97 114 111 97
175 176 183 201 218 124 55 69 68 60 57 61 30 27 93 90 82 72 62 58 66 81
121 104 94 86 85 85 85 72 64 58 61 66 50 49 63 82 78 75 66 61 57 60
76 82 83 82 79 76 79 81 79 72 64 65 65 56 67 78 82 82 76 70 68 59
64 70 74 77 76 84 84 83 76 74 63 61 58 62 68 68 69 77 79 74 71 59